SCP
0 0 0 0 0 0 0 0 0 0 0 0 0 0 0 0 0 0 0 0 0 0 0 0 0 0 0 0 0 0 0 0 0 0 0 0 0 0 0 0 0 0 0
0 0 0 0 0 0 0 0 0 0 0 0 0 0 0 0 0 0 0 0 0 0 0 0 0 0 0 0 0 0 0 0 0 0 0 0 0 0 0 0 0 0 0
0 0 0 0 0 0 0 0 0 0 0 0 0 0 0 0 0 0 0 0 0 0 0 0 0 0 0 0 0 0 0 0 0 0 0 0 0 0 0 0 0 0 0
0 0 0 0 0 0 0 0 0 0 0 0 0 0 0 0 0 0 0 0 0 0 0 0 0 0 0 0 0 0 0 0 0 0 0 0 0 0 0 0 0 0 0
0 0 0 0 0 0 0 0 0 0 0 0 0 0 0 0 0 0 0 0 0 0 0 0 0 0 0 0 0 0 0 0 0 0 0 0 0 0 0 0 0 0 0
0 0 0 0 0 0 0 0 0 0 0 0 0 0 0 0 0 0 0 0 0 0 0 0 0 0 0 0 0 0 0 0 0 0 0 0 0 0 0 0 0 0 0
0 0 0 0 0 0 0 0 0 0 0 0 0 0 0 0 0 0 0 0 0 0 0 0 0 0 0 0 0 0 0 0 0 0 0 0 0 0 0 0 0 0 0
0 0 0 0 0 0 0 0 0 0 0 0 0 0 0 0 0 0 0 0 0 0 0 0 0 0 0 0 0 0 0 0 0 0 0 0 0 0 0 0 0 0 0
0 0 0 0 0 0 0 0 0 0 0 0 0 0 0 0 0 0 0 0 0 0 0 0 0 0 0 0 0 0 0 0 0 0 0 0 0 0 0 0 0 0 0
0 0 0 0 0 0 0 0 0 0 0 0 0 0 0 0 0 0 0 0 0 0 0 0 0 0 0 0 0 0 0 0 0 0 0 0 0 0 0 0 0 0 0
0 0 0 0 0 0 0 0 0 0 0 0 0 0 0 0 0 0 0 0 0 0 0 0 0 0 0 0 0 0 0 0 0 0 0 0 0 0 0 0 0 0 0
0 0 0 0 0 0 0 0 0 0 0 0 0 0 0 0 0 0 0 0 0 0 0 0 0 0 0 0 0 0 0 0 0 0 0 0 0 0 0 0 0 0 0
0 0 0 0 0 0 0 0 0 0 0 0 0 0 0 0 0 0 0 0 0 0 0 0 0 0 0 0 0 0 0 0 0 0 0 0 0 0 0 0 0 0 0
0 0 0 0 0 0 0 0 0 0 0 0 0 0 0 0 0 0 0 0 0 0 0 0 0 0 0 0 0 0 0 0 0 0 0 0 0 0 0 0 0 0 0
0 0 0 0 0 0 0 0 0 0 0 0 0 0 0 0 0 0 0 0 0 0 0 0 0 0 0 0 0 0 0 0 0 0 0 0 0 0 0 0 0 0 0
0 0 0 0 0 0 0 0 0 0 0 0 0 0 0 0 0 0 0 0 0 0 0 0 0 0 0 0 0 0 0 0 0 0 0 0 0 0 0 0 0 0 0
0 0 0 0 0 0 0 0 0 0 0 0 0 0 0 0 0 0 0 0 0 0 0 0 0 0 0 0 0 0 0 0 0 0 0 0 0 0 0 0 0 0 0
0 0 0 0 0 0 0 0 0 0 0 0 0 0 0 0 0 0 0 0 0 0 0 0 0 0 0 0 0 0 0 0 0 0 0 0 0 0 0 0 0 0 0
0 0 0 0 0 0 0 0 0 0 0 0 0 0 0 0 0 0 0 0 0 0 0 0 0 0 0 0 0 0 0 0 0 0 0 0 0 0 0 0 0 0 0
0 0 0 0 0 0 0 0 0 0 0 0 0 0 0 0 0 0 0 0 0 0 0 0 0 0 0 0 0 0 0 0 0 0 0 0 0 0 0 0 0 0 0
0 0 0 0 0 0 0 0 0 0 0 0 0 0 0 0 0 0 0 0 0 0 0 0 0 0 0 0 0 0 0 0 0 0 0 0 0 0 0 0 0 0 0
0 0 0 0 0 0 0 0 0 0 0 0 0 0 0 0 0 0 0 0 0 0 0 0 0 0 0 0 0 0 0 0 0 0 0 0 0 0 0 0 0 0 0
0 0 0 0 0 0 0 0 0 0 0 0 0 0 0 0 0 0 0 0 0 0 0 0 0 0 0 0 0 0 0 0 0 0 0 0 0 0 0 0 0 0 0
0 0 0 0 0 0 0 0 0 0 0 0 0 0 0 0 0 0 0 0 0 0 0 0 0 0 0 0 0 0 0 0 0 0 0 0 0 0 0 0 0 0 0
0 0 0 0 0 0 0 0 0 0 0 0 0 0 0 0 0 0 0 0 0 0 0 0 0 0 0 0 0 0 0 0 0 0 0 0 0 0 0 0 0 0 0
0 0 0 0 0 0 0 0 0 0 0 0 0 0 0 0 0 0 0 0 0 0 0 0 0 0 0 0 0 0 0 0 0 0 0 0 0 0 -0 -0 -0 0 0
Wind_Speed
5 5 4 3 3 3 3 2 2 2 1 1 1 1 1 1 1 1 2 3 3 3 3 3 4 4 4 3 3 4 4 5 8 8 6 6 7 8 9 8 8 8 9
5 5 4 4 3 3 2 2 2 2 2 2 1 1 2 2 2 2 3 3 3 4 4 4 5 4 5 4 4 5 5 5 6 10 8 7 8 8 9 9 8 8 7
5 5 4 3 3 2 2 1 2 2 1 1 1 2 2 2 2 3 3 4 4 4 5 5 5 5 6 5 5 5 5 5 5 7 8 6 6 6 8 8 8 7 7
4 4 4 3 2 2 1 1 1 1 1 2 2 2 2 3 3 3 4 4 4 4 5 5 5 5 6 6 6 6 5 6 6 6 7 7 6 6 6 7 8 7 7
4 3 2 2 2 1 1 1 1 1 1 1 1 2 2 2 3 4 4 4 4 5 5 5 5 7 9 7 6 6 5 5 5 6 7 7 6 6 6 6 7 8 7
3 2 2 2 2 1 1 0 0 0 1 1 1 2 2 3 6 7 5 3 4 4 5 5 6 7 9 11 12 11 9 7 7 6 7 8 9 8 7 7 7 7 6
3 3 2 2 1 0 1 1 0 0 1 1 2 2 3 5 7 8 8 4 4 4 5 5 5 6 9 6 9 11 9 11 10 8 8 9 9 8 8 8 7 7 7
3 2 2 2 1 1 1 0 1 1 1 2 2 3 3 5 8 8 8 4 4 4 5 5 6 6 7 8 6 6 6 6 8 7 7 8 8 7 7 6 6 7 6
2 1 1 1 1 1 1 1 1 1 1 2 2 3 3 5 8 8 8 3 4 5 5 5 6 6 11 11 7 6 7 7 8 10 11 10 12 12 9 5 5 5 6
1 1 1 1 1 0 0 1 1 1 2 2 3 3 3 4 8 8 7 3 4 4 4 5 8 9 11 11 6 5 7 7 7 8 8 8 7 8 9 5 4 4 4
2 1 1 1 1 1 1 1 1 1 2 2 3 3 3 5 7 9 8 3 3 4 4 4 5 11 12 11 8 5 7 8 5 5 6 6 5 4 4 4 3 3 3
2 2 2 2 1 1 1 1 1 1 2 2 3 3 3 4 6 7 9 8 6 4 5 4 6 11 11 11 7 8 10 8 3 4 5 5 5 5 4 5 4 3 2
3 2 2 1 1 1 1 1 1 1 1 2 2 3 4 4 5 9 9 9 9 5 4 8 10 11 10 7 8 9 7 3 3 4 5 5 4 5 4 4 4 3 3
2 2 2 2 2 1 1 1 1 1 2 2 3 3 4 4 4 4 4 5 6 5 4 6 9 8 7 7 7 5 3 3 3 4 4 5 4 4 3 3 3 3 3
2 2 2 2 1 2 2 1 2 2 3 3 3 3 4 4 6 10 6 4 3 4 4 3 3 4 4 4 4 3 3 3 3 3 4 4 4 4 4 3 2 3 3
2 2 2 1 2 2 2 3 4 4 6 7 7 6 5 8 11 11 10 9 8 7 5 3 3 4 4 4 4 4 4 4 3 3 3 3 4 4 4 3 2 2 2
1 2 2 2 2 2 2 2 3 5 6 7 7 8 8 9 9 9 9 8 7 7 3 3 3 4 4 4 4 4 4 4 3 3 3 3 3 3 3 3 3 2 2
2 3 3 2 2 2 2 2 2 3 4 4 6 8 9 9 8 8 8 6 4 4 3 3 3 4 4 4 4 4 4 4 3 3 3 3 3 3 3 3 2 2 2
3 2 2 2 2 2 2 2 2 3 3 4 4 5 8 8 8 7 6 3 3 4 4 4 4 4 4 4 4 4 4 4 4 3 3 3 3 3 3 2 2 2 2
2 5 4 2 2 2 2 2 3 3 3 3 4 4 4 5 4 4 3 3 3 4 4 4 4 4 4 4 4 4 4 4 4 3 3 3 2 2 2 2 1 1 1
2 3 6 4 2 2 2 2 3 3 3 3 3 4 6 3 3 4 4 4 4 4 4 4 4 4 4 4 3 4 4 3 3 3 3 2 2 2 2 1 1 1 1
2 2 2 3 3 3 3 3 2 3 3 4 3 4 7 4 3 4 4 4 4 4 4 4 4 4 4 4 4 4 4 4 3 2 2 2 2 2 1 1 1 1 1
2 2 2 3 3 4 4 3 2 3 3 3 3 4 4 3 4 4 4 4 4 4 4 4 4 4 4 4 3 3 4 4 3 2 2 2 1 1 1 1 1 2 2
2 2 3 3 3 2 3 3 3 3 3 3 3 3 4 4 4 4 4 4 4 4 4 4 4 5 6 4 3 3 3 3 2 2 2 1 1 1 1 1 1 2 2
2 2 3 3 3 2 3 3 3 3 3 3 3 4 4 4 4 4 4 4 5 5 5 5 4 4 6 6 5 3 3 3 3 1 0 0 1 1 1 1 2 2 2
2 2 2 2 2 2 3 3 3 3 3 3 3 3 4 4 4 4 4 4 4 5 5 4 5 6 6 5 4 5 4 3 2 1 1 1 1 2 2 2 2 2 2
Wind_Direction
146 145 137 140 133 134 146 160 165 171 175 192 215 239 266 282 288 291 288 287 287 293 293 288 287 286 284 285 281 276 272 266 279 292 290 296 295 298 305 301 299 297 299
144 136 133 130 127 132 146 163 166 180 199 208 215 237 262 273 273 270 280 284 282 286 289 290 291 294 291 289 286 282 279 273 275 292 300 303 300 299 301 304 309 309 302
132 129 124 126 133 148 161 163 173 188 209 218 215 236 258 267 270 267 266 271 275 275 278 283 289 295 295 293 290 287 285 287 280 287 296 300 301 303 310 310 309 305 310
129 130 133 144 155 164 167 173 186 192 209 228 246 252 259 267 267 269 272 274 277 279 278 279 284 284 285 289 290 288 292 296 293 292 297 303 302 302 306 314 317 319 316
122 125 134 134 129 128 148 176 194 208 243 246 262 277 278 271 265 277 279 279 283 288 287 285 285 292 297 298 300 298 297 294 298 298 299 305 307 315 315 310 310 314 309
110 110 106 104 102 119 135 114 82 317 292 288 273 277 284 288 293 298 300 278 280 282 288 291 291 292 299 304 305 304 303 299 298 295 298 302 303 305 306 308 310 317 311
90 87 88 102 109 120 94 72 8 293 313 301 286 283 284 290 304 303 302 296 278 278 284 291 298 299 305 295 298 305 306 306 302 296 293 294 299 303 305 305 304 305 295
76 75 76 85 82 56 65 32 310 302 283 278 284 284 287 297 309 309 309 299 280 279 279 280 284 293 296 303 301 305 302 302 301 295 284 286 293 297 293 290 292 297 292
61 59 60 85 79 56 27 336 308 300 296 288 285 286 288 299 310 313 319 297 285 282 280 285 289 289 300 312 313 307 308 309 312 311 308 309 313 318 321 317 316 314 308
22 11 39 67 85 69 352 311 316 304 294 301 301 290 286 293 307 315 320 300 296 296 293 288 293 301 307 313 309 304 306 309 315 318 320 321 319 319 325 315 300 301 304
358 17 37 38 57 80 44 352 341 328 323 309 303 301 294 300 310 314 319 314 299 303 304 301 298 307 310 311 313 302 301 312 314 315 314 317 324 326 325 320 311 293 289
20 26 38 37 29 38 45 3 351 342 333 316 313 315 310 306 314 313 316 317 318 300 297 300 304 311 311 313 314 315 319 325 322 319 318 321 326 326 323 321 322 318 301
33 36 36 35 32 23 27 351 343 338 322 314 317 314 315 314 313 320 321 320 318 310 297 308 316 319 319 316 317 321 325 325 322 319 316 313 311 311 316 321 331 334 343
37 22 13 26 12 1 345 334 322 312 306 301 305 306 310 311 310 312 313 315 317 316 314 313 319 320 321 317 318 320 318 312 314 305 305 306 313 322 326 329 334 343 352
30 10 356 354 341 337 332 310 301 271 283 294 288 290 300 301 307 319 322 315 316 315 321 320 325 328 332 329 326 322 322 324 323 317 313 317 322 327 329 335 338 347 356
12 358 341 331 323 320 320 324 323 318 316 314 309 303 294 299 311 319 323 326 328 328 330 324 325 324 320 322 323 323 323 321 319 316 315 315 318 324 329 333 338 353 359
348 328 320 322 314 312 315 321 322 328 326 322 321 320 319 319 319 322 326 330 330 334 329 315 313 313 313 314 314 315 316 315 314 312 313 316 319 321 327 332 340 354 1
339 325 327 314 305 296 295 297 298 305 315 318 322 322 325 327 326 328 334 337 331 334 319 307 305 306 305 304 305 307 310 313 315 314 315 318 321 320 326 330 340 358 356
330 318 312 303 301 298 299 302 300 297 299 305 314 321 329 331 332 336 340 336 316 313 312 307 304 303 304 304 303 304 304 305 307 309 314 318 319 322 325 330 340 359 3
320 323 324 318 311 309 308 304 301 299 301 305 312 317 326 331 330 331 332 323 315 310 308 305 304 303 303 303 304 303 302 303 306 308 312 316 316 317 321 326 339 356 4
313 313 320 320 314 308 304 297 294 296 300 303 305 312 322 319 315 317 318 318 314 310 307 305 303 301 300 300 300 298 295 297 300 302 306 310 316 321 323 333 344 3 22
297 299 306 306 307 306 305 299 298 298 300 304 310 315 322 321 316 313 313 312 309 305 303 300 299 297 294 292 290 290 290 293 295 300 306 313 321 331 347 6 30 51 64
294 298 303 302 300 302 305 303 301 302 303 307 309 312 317 316 316 314 313 314 313 311 310 305 301 301 299 293 286 279 278 281 284 286 298 309 325 340 4 39 78 76 60
285 286 287 291 293 291 295 300 303 304 305 306 307 308 309 309 311 313 314 313 312 312 312 311 307 305 306 306 300 293 288 289 290 283 277 288 345 7 43 63 76 70 64
280 282 282 282 284 289 294 297 299 302 303 303 304 306 308 310 313 313 315 316 317 317 318 315 313 312 311 312 314 314 314 312 310 310 310 75 70 61 74 80 86 75 68
283 281 281 281 281 285 287 291 295 299 297 299 302 304 307 309 310 313 317 320 321 319 318 317 318 319 319 318 320 326 327 328 339 20 61 88 89 82 83 89 89 86 84